Find Starlink 5706

NORAD ID: 55488 Int'l Des: 2023-015 Owner: SPXS Country: US Constellation: starlink operational
LEOCIRCULAR

Live Position

Loading 3D Globe...

About Starlink 5706

Description loading...

Upcoming Passes

Passes for default location (London). Set your location on the main map for personalized predictions.

Altitude History

Loading altitude history...

Two-Line Element Set

1 55488U 23015AR 26109.33335647 .00022540 00000-0 82654-3 0 9994
2 55488 43.0007 110.1860 0001212 269.5529 3.6946 15.27562944 5702
Epoch: Apr 19, 2026 • Age: 20 hours

Current Status

Altitude 483.2 km
Velocity 7.63 km/s
Sub-Earth Point 23.77°N, 8.31°W
Launch Date Feb 2, 2023
Age 3.2 years
Type internet

Technical Details

Classification Payload
Mass 305.00 kg
Dry Mass 290.00 kg
Total Mass 305.00 kg
Length 0.20 m
Diameter 2.80 m
Span 9.00 m
Shape Box + pan
Manufacturer SPXS
Bus Type Starlink
Phase Status In Orbit
Owner/State SPXS/US

Most Searched